カタログに戻る

THORAD AGENA D DEB

運用中SSO
NORAD 5388·DEBRIS·🇺🇸 United States

打ち上げ Apr 8, 1970 から Vandenberg Space Force Base

Loading…

次のパス (今後24時間)

TLE

最新Source: Space-Track

元期: Sep 14, 2026, 07:11 UTC

1 05388U 70025KT  26257.29978275  .00000508  00000-0  98668-3 0  9992
2 05388  99.9313 194.8769 0136232 310.8533 204.0193 13.38360060737763

AllMySatでTHORAD AGENA D DEBをリアルタイム追跡

Download on the App Store